Location: Eaton Estates
(41.3089°N, 82.0057°W)
Time: 05:43:47
(UTC+00:00)

Cosmos 372 Rocket - Visible Passes

Search period start: 18 October 2021 00:00
Search period end: 28 October 2021 00:00
Orbit: 739 x 767 km, 74.1° (Epoch: 17 October)

Date Brightness Start Highest point End Pass type
(mag) Time Alt. Az. Time Alt. Az. Time Alt. Az.
18 Oct 6.9 00:17:47 10° WNW 00:19:31 12° NW 00:21:15 10° NNW visible
18 Oct 6.5 23:33:43 10° WSW 23:37:30 20° WNW 23:41:16 10° N visible
21 Oct 6.6 23:11:21 10° W 23:14:36 17° NW 23:17:51 10° NNW visible
